Find Equator-S

NORAD ID: 25068 Int'l Des: 1997-075 Owner: MPE Country: D operational
MEOELLIPTICALHEO_ELLIPTICAL

实时位置

正在加载3D地球...

关于 Equator-S

正在加载描述...

即将过境

Passes for default location (London). Set your location on the main map for personalized predictions.

高度历史

Loading altitude history...

两行轨道根数

1 25068U 97075B 26103.23832833 -.00000352 00000-0 -22974-3 0 9992
2 25068 4.9088 258.6471 8261459 332.6154 1.0875 1.07777062111768
Epoch: Apr 13, 2026 • Age: 46 hours

当前状态

高度 17631.0 km
速度 4.83 km/s
星下点 4.97°N, 102.29°E
发射日期 Dec 2, 1997
运行时间 28.3 years
类型 other

技术详情

分类 Payload
质量 197.00 kg
干质量 197.00 kg
总质量 230.00 kg
长度 1.30 m
直径 1.50 m
跨度 5.00 m
形状 Cyl + 2 Ant
制造商 MPE
平台类型 Equator-S
阶段状态 In Orbit
所有者/国家 MPE/D

Most Searched